Theta_e
315 315 314 314 314 314 313 313 313 313 312 312 312 314 316 315 316 311 304 303 299 299 302 310 312 306 306 299 296 298 300 299 295 292 291 291 290 293 290 291 291 290 288 288 290 287 288 307 306 300 304 313 314 316
315 315 315 314 313 313 313 313 313 312 312 312 312 312 315 315 315 312 299 303 304 296 298 309 313 315 315 311 303 298 300 298 298 294 293 293 293 292 290 288 295 290 293 292 294 293 302 306 306 310 311 313 312 319
315 315 314 314 312 313 312 312 312 312 312 312 312 313 314 314 314 314 308 301 300 299 302 304 307 311 313 316 309 300 300 302 299 299 296 295 293 294 290 291 293 296 298 295 296 299 303 309 311 312 311 315 317 322
313 313 314 313 312 312 312 312 312 312 311 311 312 313 313 314 314 314 307 301 299 295 297 303 313 310 315 307 307 307 305 302 300 298 294 292 290 295 291 294 294 297 299 296 297 301 305 307 311 311 320 321 322 322
312 312 312 312 312 311 311 311 312 311 311 312 312 313 313 314 313 312 311 310 304 298 297 300 308 309 312 309 307 305 305 302 299 297 293 293 291 295 292 294 293 300 298 296 296 303 303 305 309 315 319 319 320 320
311 311 311 311 311 310 310 311 311 311 311 311 313 313 313 313 313 305 297 304 308 301 299 299 306 308 306 305 305 304 303 301 299 296 294 293 296 296 291 289 296 301 302 302 302 305 305 307 310 315 319 320 320 320
310 310 311 310 310 310 310 311 311 311 311 312 313 313 313 313 310 302 297 301 305 302 301 301 301 307 306 302 303 303 301 300 299 296 296 298 296 295 291 288 299 300 301 303 307 306 304 307 307 312 319 321 319 321
309 310 310 309 309 310 310 311 311 311 311 313 313 313 312 312 310 305 307 310 307 300 304 299 298 300 304 300 299 301 299 298 298 297 297 296 297 293 289 296 297 302 306 306 307 306 306 306 307 310 316 318 317 317
309 309 309 309 309 309 310 311 310 311 312 312 312 313 309 306 299 300 312 313 305 303 298 296 293 295 306 301 302 302 300 296 298 296 295 298 290 288 297 298 298 301 306 307 306 305 305 306 305 307 313 315 314 314
308 308 308 308 307 307 310 310 310 311 312 312 307 300 296 300 309 312 306 301 299 302 302 297 301 297 304 302 299 301 300 298 295 298 299 295 294 297 300 300 301 303 306 304 303 302 302 303 304 305 308 309 311 313
308 308 308 308 307 308 310 310 310 312 310 301 298 300 307 310 307 303 297 296 297 296 297 298 300 298 304 300 299 302 299 297 292 296 297 293 293 298 302 301 302 304 306 306 309 309 307 308 305 304 304 306 307 308
307 307 308 307 308 309 310 309 309 311 302 303 301 303 302 303 299 297 295 295 295 294 295 296 299 300 301 304 302 304 300 299 293 298 296 289 297 301 302 303 303 303 306 306 306 306 307 308 307 306 305 307 309 311
307 307 307 308 308 309 310 308 309 309 307 302 301 302 302 297 289 292 290 291 291 296 296 294 296 299 303 303 300 302 299 297 300 295 293 296 299 300 301 304 304 303 305 307 305 306 308 308 307 306 306 309 310 309
306 306 307 307 308 309 309 308 309 309 303 300 301 289 296 294 292 293 294 293 297 300 301 294 295 298 299 298 298 295 299 300 294 290 294 298 301 302 303 306 303 303 304 305 305 305 306 307 306 307 309 309 308 307
305 305 306 306 307 308 309 308 309 308 303 300 301 291 295 296 296 297 298 298 300 302 301 297 297 298 297 296 297 296 295 293 295 294 297 300 302 302 304 304 303 303 303 303 304 304 305 305 305 305 307 307 308 308
305 305 304 307 308 309 309 307 306 307 304 302 302 298 297 295 295 296 297 297 301 302 303 302 298 296 295 295 295 294 294 293 297 301 302 300 301 302 305 304 303 303 302 302 302 303 304 304 304 304 305 306 308 308
305 303 309 309 309 309 308 303 305 302 300 299 297 297 296 295 295 297 297 299 303 300 296 300 297 296 300 295 294 298 296 299 303 306 304 303 304 304 305 304 302 302 301 300 301 303 304 303 303 304 303 304 305 306
303 308 310 309 308 307 304 304 302 300 295 298 296 295 296 297 295 296 299 305 302 301 302 300 303 298 296 294 296 301 304 307 309 309 307 306 306 306 306 304 302 303 301 301 302 302 302 302 303 304 305 303 302 302
306 307 310 309 308 304 300 301 303 296 297 298 297 295 295 296 298 301 300 303 305 305 304 303 300 298 299 303 304 305 306 306 307 307 307 307 307 306 304 303 302 302 301 300 301 302 304 304 306 305 304 304 304 302
307 308 310 310 309 303 301 300 305 298 292 294 295 297 299 299 299 298 299 300 304 304 302 299 298 302 305 307 308 306 307 309 308 305 305 307 308 306 305 304 303 303 303 303 302 300 301 302 303 303 304 305 303 302
306 308 310 308 305 302 299 299 300 300 300 297 304 303 303 303 298 295 296 302 302 298 298 300 302 304 306 307 309 310 309 309 308 309 308 307 309 311 308 307 307 307 306 304 303 303 302 304 304 304 304 305 306 306
307 309 305 306 302 303 301 299 297 303 301 301 300 304 302 301 300 300 301 300 299 302 302 303 305 306 306 308 309 310 312 312 312 311 306 308 309 307 307 308 309 307 306 306 305 305 305 304 306 307 307 307 306 307
308 308 304 303 298 296 294 299 296 299 295 299 301 299 299 300 303 305 299 301 302 304 306 307 307 308 308 309 311 311 312 311 311 311 310 311 311 312 312 309 308 306 304 304 305 304 303 301 303 306 306 307 307 306
307 303 300 298 297 293 301 298 301 297 297 296 296 297 298 301 304 300 298 299 302 303 303 304 307 306 305 305 306 307 309 311 309 308 309 309 308 309 311 310 307 308 307 304 305 304 305 305 302 305 306 306 306 305
294 293 296 289 299 296 295 295 297 298 296 297 296 296 298 302 298 296 296 297 303 303 304 306 306 306 305 305 305 307 310 310 308 307 308 309 308 305 305 305 306 307 308 306 306 306 305 306 306 307 307 306 305 304
290 296 291 296 295 295 296 296 297 298 296 296 297 299 303 300 297 295 299 304 306 305 305 304 305 305 305 305 306 306 308 311 311 309 311 310 309 307 304 303 302 302 307 309 307 306 305 306 307 306 305 302 297 302
290 293 297 297 299 300 298 300 299 296 296 296 298 299 298 295 296 300 304 307 308 308 309 310 309 308 306 305 306 308 311 313 312 311 312 310 311 312 309 307 305 307 309 310 310 308 306 306 305 305 305 304 303 302
296 297 292 296 297 299 296 295 295 295 296 300 299 297 298 299 299 305 306 309 309 310 310 311 310 310 307 307 309 311 310 308 308 308 307 306 307 309 309 308 309 300 310 310 308 308 307 306 305 304 303 303 303 303
294 297 297 294 295 295 296 296 296 298 301 301 298 299 302 306 307 306 306 308 311 311 309 309 310 309 309 310 309 308 308 309 309 306 306 304 304 305 306 305 305 308 308 307 299 303 305 305 304 303 303 303 303 303
293 297 294 294 294 294 299 302 304 305 308 308 309 308 308 309 312 314 313 313 309 311 312 311 311 309 308 307 305 306 308 308 309 306 304 303 305 305 306 306 307 307 307 307 305 300 296 301 299 303 301 301 301 301
296 294 294 294 294 298 305 309 309 309 308 307 308 306 306 309 310 311 314 313 313 312 313 311 311 308 309 306 305 305 306 307 308 308 307 306 306 307 307 306 306 305 305 306 304 303 302 302 302 302 302 301 301 300
292 293 293 292 294 301 303 303 304 305 305 305 304 307 304 305 303 308 312 313 311 308 306 305 307 308 309 309 308 307 301 308 309 308 308 307 308 309 309 307 303 303 302 302 303 303 304 303 303 303 303 303 303 302
292 293 294 294 295 297 299 301 301 301 303 303 302 303 304 304 302 306 314 313 312 309 307 305 305 305 308 307 305 301 299 301 299 294 299 299 300 303 306 305 303 303 303 303 303 303 303 303 303 303 303 303 303 304
Wind_Speed
10 9 8 7 7 8 9 8 8 8 8 9 9 11 9 8 8 1 4 3 3 2 7 4 3 3 3 2 3 3 4 3 4 4 4 4 4 5 1 3 3 5 4 3 3 2 6 2 3 6 7 4 4 3
11 10 9 8 7 7 9 9 8 9 8 9 8 10 9 8 7 1 2 2 1 3 7 3 9 13 7 9 3 1 3 4 5 6 1 4 2 2 4 3 2 3 6 5 8 7 4 4 4 5 4 3 3 5
10 8 9 8 7 8 9 9 9 9 9 9 9 9 9 7 7 2 2 1 1 2 6 2 9 4 4 12 7 4 2 4 3 3 5 3 3 5 5 7 3 4 4 2 2 3 4 2 4 3 3 3 7 7
7 8 9 7 6 7 9 9 9 9 9 9 9 9 10 8 8 5 2 2 2 0 2 8 3 7 2 5 8 7 5 5 6 3 3 3 3 4 4 3 4 4 5 5 4 5 3 3 3 2 2 5 10 7
7 7 5 5 6 8 8 9 9 9 9 9 10 9 10 10 9 5 4 5 4 3 3 6 9 6 7 5 9 6 7 5 3 3 3 4 3 4 1 2 3 6 8 6 7 8 6 6 5 2 6 7 6 11
7 5 5 6 6 7 8 9 10 9 10 11 10 9 9 9 1 1 4 2 6 4 1 4 5 5 4 5 7 7 4 4 4 5 3 2 2 4 4 4 6 6 6 5 4 6 4 5 5 1 7 7 7 9
6 5 5 6 7 8 8 9 9 10 11 12 10 8 8 7 2 4 2 1 5 2 2 5 5 4 2 4 3 3 4 3 3 3 2 4 2 4 4 4 6 8 7 6 2 7 4 3 6 6 8 7 7 8
6 4 5 6 7 8 8 8 9 10 12 11 8 7 7 5 5 5 5 16 5 1 1 3 6 5 1 1 2 1 3 2 3 3 1 3 1 2 3 8 4 4 5 6 9 3 6 7 7 6 5 6 8 7
5 4 5 6 7 7 8 8 9 10 10 8 6 6 1 2 2 4 4 12 2 1 2 1 2 4 3 1 2 3 2 2 1 2 3 5 1 5 9 8 6 8 8 9 7 5 8 10 8 7 7 6 8 5
4 6 6 6 7 8 8 8 10 10 7 5 2 0 3 4 6 5 3 3 2 3 1 3 1 4 2 1 1 3 2 2 2 4 3 3 6 6 7 9 8 9 8 9 10 6 5 7 9 7 8 7 8 8
5 6 6 7 7 8 7 8 9 7 2 1 0 2 3 7 2 2 1 2 1 3 3 5 6 3 1 3 2 0 3 2 2 5 5 2 5 7 8 10 9 8 10 12 12 14 14 16 12 8 6 7 6 7
6 6 7 7 7 6 6 8 7 2 2 1 2 3 3 2 3 2 3 1 3 6 3 4 4 5 1 2 4 0 2 1 5 2 3 3 7 8 3 8 9 8 9 9 6 9 9 9 10 10 8 8 7 6
5 6 6 7 7 5 5 5 5 3 3 1 1 2 1 1 2 5 6 3 2 3 3 1 1 3 1 2 3 3 1 6 3 2 5 6 5 5 5 4 6 7 7 6 6 6 7 7 7 7 8 4 7 7
5 6 7 8 7 7 5 5 4 2 1 1 3 3 4 4 5 5 4 3 4 2 2 2 1 2 1 3 3 4 6 3 3 3 6 4 7 7 6 4 6 9 9 9 9 9 8 9 8 6 7 9 10 8
5 8 8 10 12 9 6 4 2 1 0 2 2 4 5 3 3 3 2 2 2 2 0 1 2 2 0 3 3 3 2 5 7 5 5 6 6 5 6 6 7 8 8 8 7 8 8 8 9 7 7 7 7 8
6 9 5 8 6 7 8 3 1 1 1 3 4 2 1 1 3 2 2 3 2 1 1 2 1 1 5 3 3 7 5 6 4 4 3 3 3 5 6 7 7 8 8 8 7 7 7 9 10 9 8 8 8 10
3 3 4 4 6 8 8 2 2 3 3 3 4 2 2 2 4 3 2 3 2 2 2 2 0 4 2 3 4 4 5 3 2 4 2 3 6 6 5 6 7 8 8 8 7 7 7 6 9 9 9 6 7 7
3 3 3 11 7 5 1 1 1 3 5 4 4 4 3 3 3 3 3 3 3 3 3 3 2 2 4 3 3 2 1 3 5 4 2 5 6 5 6 8 7 10 9 8 7 7 7 9 9 8 8 8 7 6
2 4 4 11 3 2 3 3 2 3 6 2 3 2 3 4 5 6 4 3 3 1 4 3 5 3 5 4 3 4 2 1 3 4 5 6 4 4 6 7 8 7 8 9 8 7 8 11 10 8 7 8 8 7
8 10 6 8 2 1 3 3 2 3 4 4 3 3 3 4 3 3 5 4 4 3 4 5 5 4 5 6 5 5 4 2 3 3 3 4 2 5 5 5 5 7 6 6 5 6 4 3 2 4 6 8 9 9
2 3 5 3 1 2 2 2 4 4 3 3 3 3 3 2 3 3 4 4 3 4 4 5 4 4 4 3 3 2 2 4 4 3 3 1 3 4 4 4 6 5 4 4 6 5 6 8 5 5 7 6 5 7
1 7 2 2 1 2 4 4 3 2 3 4 3 4 3 3 3 4 4 3 4 6 5 5 6 6 5 6 6 6 5 4 4 4 0 2 2 1 2 4 5 3 4 3 3 4 4 4 5 6 7 7 9 9
2 3 2 2 2 3 6 2 3 4 3 3 1 2 3 2 2 4 3 4 5 5 7 8 9 6 7 7 6 9 6 6 4 3 2 2 2 2 4 6 5 4 3 2 3 4 5 7 7 9 9 10 10 9
2 2 2 4 5 3 2 3 3 3 3 3 2 4 2 2 4 2 4 3 3 3 1 3 2 1 1 1 5 5 7 6 4 3 3 3 3 3 2 3 4 4 4 5 5 5 6 7 9 10 11 11 9 8
2 3 3 4 3 3 3 3 4 2 3 3 2 4 2 2 3 2 2 3 4 3 2 1 1 3 3 2 3 4 5 6 6 6 4 4 2 2 2 2 3 4 7 8 7 9 8 8 9 9 10 10 10 8
4 4 6 3 3 4 4 3 2 3 2 3 4 2 2 2 1 2 2 2 2 2 3 0 1 2 2 3 2 2 3 4 4 3 3 5 6 4 6 7 6 3 4 7 10 11 10 9 9 10 8 8 9 8
3 5 4 3 2 2 4 4 3 2 3 2 2 2 1 1 1 3 2 2 2 2 2 2 2 3 3 2 1 1 2 4 3 2 2 3 4 4 5 8 11 7 8 10 10 11 12 10 9 9 8 5 7 8
4 2 5 2 2 2 3 3 2 3 2 2 1 2 1 2 2 2 3 2 2 2 2 3 3 2 1 1 2 4 4 4 6 5 5 5 3 2 3 2 5 14 9 9 8 7 9 9 9 9 8 9 7 7
3 2 2 3 3 3 5 5 4 3 2 2 1 2 2 1 1 2 3 2 1 1 2 1 3 2 2 3 4 3 4 4 5 6 5 3 2 2 2 4 6 6 6 6 6 6 9 9 9 9 10 8 6 6
5 4 3 3 4 5 4 4 1 1 0 0 2 2 2 2 2 2 2 3 3 2 2 2 2 4 3 3 3 4 4 3 3 3 4 3 3 3 3 5 6 5 4 5 5 5 10 6 7 4 4 4 3 4
1 3 2 3 4 3 5 7 4 3 2 3 3 3 2 1 2 1 1 2 2 2 4 4 4 4 2 3 3 3 3 3 2 3 3 4 5 4 4 4 4 4 4 4 5 5 5 4 4 4 5 5 6 7
3 6 4 3 4 3 3 5 5 5 3 3 2 2 1 2 2 2 3 2 3 5 4 3 3 2 2 2 2 2 4 3 3 4 7 4 4 4 5 4 4 4 5 4 4 4 4 5 4 6 7 9 8 10
3 2 3 3 3 3 1 3 2 2 2 2 2 1 1 2 2 1 2 1 2 1 2 1 1 2 3 3 3 1 4 4 2 1 7 9 9 8 5 4 4 4 6 5 5 5 7 7 7 7 5 5 5 6
Wind_Direction
209 220 236 249 264 280 287 297 301 305 315 320 325 326 324 333 335 22 275 223 143 244 276 245 298 334 346 95 136 255 67 348 56 84 131 201 181 216 146 230 197 189 154 206 104 86 265 16 114 153 226 306 74 63
209 217 225 239 271 277 287 290 295 302 311 312 320 322 327 325 324 48 294 323 50 189 254 291 260 252 230 214 149 233 219 165 165 92 152 119 164 124 161 264 62 263 185 187 176 217 247 246 240 258 209 146 145 107
208 221 235 238 265 275 283 287 294 299 303 308 312 312 309 302 299 263 260 265 48 306 295 359 251 276 218 216 167 165 265 163 148 152 152 157 168 132 167 236 194 230 172 180 49 268 247 281 283 250 307 179 124 122
224 235 241 241 259 271 281 288 294 298 299 306 308 303 301 293 280 255 214 180 112 224 262 281 308 289 239 160 183 192 147 74 99 94 114 139 170 178 199 189 174 200 133 164 257 275 292 251 248 295 80 105 105 102
240 242 244 253 264 275 282 289 293 296 302 310 305 295 291 287 276 258 226 222 204 134 261 280 305 256 257 197 179 153 141 117 114 88 105 216 144 123 31 92 256 189 178 162 213 200 175 192 209 165 134 123 129 124
249 238 244 256 271 280 284 291 289 299 303 309 295 287 286 289 320 7 304 202 188 176 271 308 286 299 357 114 129 133 115 94 100 140 201 217 243 117 152 200 256 212 199 178 205 167 174 172 154 168 119 132 124 123
241 242 251 265 274 279 286 288 293 300 297 296 290 285 283 280 174 212 206 298 131 126 230 296 299 285 322 92 54 73 40 96 110 134 186 153 180 108 128 188 248 216 215 206 159 114 74 181 176 165 131 121 112 112
248 256 269 274 280 283 291 295 297 298 299 295 288 284 285 282 259 273 238 211 157 197 231 260 268 346 352 123 110 14 93 41 25 149 70 149 89 75 242 237 252 257 164 171 186 257 182 139 119 126 110 118 118 134
250 274 268 268 279 291 297 297 301 300 301 300 302 295 8 186 231 242 272 140 118 134 274 200 217 248 12 32 86 41 77 90 335 172 234 110 16 213 222 208 201 207 194 183 135 131 138 139 148 136 129 130 130 145
241 258 261 264 283 294 296 302 302 301 288 314 59 125 269 215 241 145 297 84 149 252 242 241 277 269 91 42 4 90 34 158 180 245 106 146 248 246 234 219 205 197 182 143 112 128 122 131 158 167 170 165 166 172
246 255 262 268 281 290 298 303 304 301 53 79 355 244 287 314 113 40 133 146 205 253 199 232 188 205 285 121 162 153 176 156 166 253 154 258 274 242 217 210 208 201 166 186 175 171 176 168 170 158 160 169 170 160
250 253 256 263 273 282 295 305 320 253 181 163 247 304 299 37 55 172 211 301 191 226 220 187 232 193 256 98 99 150 166 117 230 150 124 261 253 252 235 218 199 188 177 184 176 170 165 162 167 167 160 170 177 167
252 254 257 272 280 282 291 301 303 306 334 84 272 259 79 196 61 198 199 244 246 234 236 222 247 168 67 74 84 101 192 231 95 131 221 225 255 267 247 185 193 176 174 176 168 171 170 161 143 149 156 151 135 129
255 265 261 263 271 269 269 273 293 330 140 191 211 271 195 198 238 198 195 194 244 239 312 177 153 154 182 115 145 157 188 175 194 226 229 234 236 242 220 177 142 177 174 180 175 165 166 157 166 161 162 149 145 148
266 275 275 267 248 243 236 234 278 220 118 251 205 238 223 238 267 251 228 310 273 273 0 41 36 115 157 141 198 111 128 225 208 225 230 227 246 219 207 186 181 163 163 165 158 165 163 153 156 156 151 143 130 125
285 288 240 228 229 209 187 190 233 179 241 246 234 254 249 26 282 280 225 243 225 216 62 74 63 55 239 176 150 213 169 211 242 219 266 296 261 230 206 189 177 154 154 148 150 154 143 148 159 160 136 145 149 150
277 249 344 172 175 140 158 142 173 204 234 234 245 232 186 224 227 237 226 239 160 84 121 89 237 243 319 226 217 180 198 226 268 266 307 262 267 255 213 162 152 144 139 142 138 153 152 121 119 130 147 174 155 161
247 301 215 147 138 134 137 200 244 234 239 232 225 228 195 206 198 235 233 194 133 153 127 225 208 229 264 231 224 238 299 282 251 280 206 267 275 246 187 173 154 155 153 152 150 135 124 139 155 177 167 153 131 131
271 326 201 166 162 159 161 205 214 259 232 234 252 226 217 235 228 228 193 209 186 193 149 166 239 223 216 219 225 215 228 220 283 298 289 301 305 205 152 141 132 133 140 144 145 165 173 182 183 172 163 159 169 156
260 278 207 178 207 230 221 205 195 255 258 234 221 216 214 213 207 204 199 189 165 183 209 211 213 220 187 214 217 203 208 180 242 305 329 342 357 124 131 152 134 122 115 111 116 119 118 110 147 152 166 171 158 164
213 159 136 144 191 233 269 255 221 233 253 246 214 178 242 189 223 187 194 150 173 208 228 222 223 243 219 244 235 205 207 198 209 204 237 348 339 79 96 98 120 133 136 156 169 177 170 198 180 159 154 155 147 143
171 148 112 170 237 238 250 206 236 279 230 250 284 199 213 214 201 189 144 162 214 225 203 217 231 220 212 217 222 216 189 215 225 226 295 135 157 132 132 134 112 138 138 176 170 187 184 144 146 144 144 144 137 136
196 155 156 148 216 224 261 152 240 223 231 248 296 244 233 222 144 148 193 206 235 219 213 231 248 199 212 221 200 224 218 164 211 189 212 228 306 212 205 158 159 135 138 169 159 152 145 143 136 135 138 139 133 129
269 192 227 189 203 257 272 242 217 257 257 256 241 266 246 180 151 210 246 230 259 327 306 257 238 182 91 226 231 220 220 190 189 202 200 190 226 255 282 93 117 139 152 135 139 131 141 141 137 142 138 135 136 148
161 239 217 248 184 232 239 253 240 272 249 237 251 279 287 134 177 233 253 291 322 328 319 305 164 190 211 224 258 235 182 179 182 188 212 181 106 47 71 86 125 146 151 142 152 150 150 145 139 141 141 152 172 172
220 202 181 223 196 208 217 269 278 234 238 263 243 296 6 8 279 270 275 277 293 291 294 296 191 220 244 205 232 216 182 140 121 165 236 192 179 186 169 154 160 201 192 156 152 155 148 148 144 151 162 165 154 159
220 227 209 233 255 263 261 221 248 252 265 256 291 297 264 283 303 258 276 245 257 262 284 269 236 257 266 278 141 149 142 139 157 176 121 149 169 173 176 173 184 175 161 156 159 160 156 158 164 170 170 162 180 193
244 252 194 216 207 227 268 289 262 241 248 233 322 280 68 9 276 267 236 284 304 317 351 331 314 294 245 233 109 121 99 105 102 106 97 65 56 102 126 107 114 140 152 155 152 150 156 162 167 170 178 198 201 187
238 237 174 247 228 238 223 213 238 237 212 134 199 293 328 266 291 302 300 320 344 59 100 30 21 27 65 69 66 92 124 144 124 104 101 113 78 38 68 111 136 139 137 135 137 138 166 165 170 175 183 187 188 168
245 175 197 239 213 227 248 176 249 256 84 358 294 28 322 325 311 303 337 1 32 52 345 344 31 38 44 68 63 46 25 48 64 120 146 159 179 125 110 120 119 121 119 123 123 108 101 96 98 101 117 133 143 151
166 157 217 234 259 244 178 164 210 153 223 232 217 201 224 301 314 299 69 2 331 70 43 7 357 37 117 116 112 93 32 352 54 102 117 114 122 124 128 140 149 145 151 155 148 144 130 135 147 153 171 185 190 187
179 199 189 228 258 240 179 184 190 201 195 178 222 123 60 79 306 330 336 21 21 36 337 304 319 333 238 181 157 224 228 132 145 134 128 129 142 151 150 152 153 147 148 147 146 156 161 161 170 194 205 209 195 197
190 179 213 274 277 257 172 142 144 134 76 99 48 131 106 150 228 291 322 328 173 211 338 14 69 97 77 91 68 47 76 99 95 156 168 162 166 163 148 153 149 145 150 162 180 167 172 172 190 192 195 209 215 204